星链-5926 (STARLINK-5926 )

导读

STARLINK-5926是美国太空探索技术公司星链计划中的一颗卫星,于2023年3月17日发射升空,属于星链星座组网卫星,主要用于为全球提供低延迟、高速率的宽带互联网服务,尤其覆盖偏远地区等网络基础设施匮乏区域,进一步扩充了星链星座的在轨规模,推进了星链全球组网部署进程。

基本信息
目录编号:
55944
目录名称:
STARLINK-5926
国际标识:
2023-037AG
轨道中心:
EARTH
卫星名称:
星链-5926
卫星全名:
星链-5926 (STARLINK-5926 )
卫星状态:
在轨 (已飞行1275 天)
发射日期:
2023-03-17 UTC
国别 :
美国 (US)
星等 :
--
该卫星已列入 空间交会检测服务 Space Conjunction Data Service (SCDS) ,当前飞行风险评估等级: 高风险
轨道信息
数据来源 国际轨道数据
星历时间: 2026-09-12T11:38:08+0800
11小时前
查看轨道信息
半长轴: 6950.192km
偏心率: 0.0002919
轨道倾角: 70.000°
近地点辐角 267.294°
升交点赤经 174.186°
平近点角 92.788°
近地点: 570.026km
远地点: 574.084km
周期: 96.107分钟
每日圈数: 14.983304
详细信息
固有亮度:
5
最大亮度:
2.5
卫星平台:
Starlink v1.5
覆盖范围:
全球
运营商:
太空探索技术公司
运营商所在国:
美国
制造商(研发单位):
太空探索技术公司
制造商所在国:
美国
使用方式:
暂无
卫星简介
星链(Starlink)计划是由太空探索技术公司(SpaceX)提出的一个巨型低轨卫星互联网星座项目,计划在2019年至2024年间在太空搭建由约1.2万颗卫星组成的“星链”网络,其中1584颗将部署在地球上空550千米处的近地轨道,并从2020年开始工作。该卫星仍在工作。
2D轨道图
3D轨道图
轨道高度分析图
轨道倾角分析图
轨道综合分析图
查看轨道综合分析图
交会数据列表
事件ID 空间交会对象 最接近时刻(TCA) 交会距离 交会风险概率(CRP) 交会风险指数(CRI) 操作
CDM_260914-203805-594405-647121
2026-09-14T
20:38:52+0000
0.220 km
中距离
7.175659E-4 高风险 0.92
CDM_260914-132605-594405-647121
2026-09-14T
13:26:18+0000
1.721 km
极远距离
4.195845E-6 低风险 0.47
CDM_260914-115005-594405-647121
2026-09-14T
11:50:11+0000
1.949 km
极远距离
2.95436E-6 低风险 0.44
CDM_260904-183903-362505-594421
2026-09-04T
18:39:02+0000
2.706 km
极远距离
1.55915E-6 低风险 0.39
CDM_260914-190205-594405-647121
2026-09-14T
19:02:45+0000
2.871 km
极远距离
1.371295E-6 低风险 0.38
与全量物体交会距离演化趋势
与全量物体交会风险概率演化趋势